SCP
1 1 2 3 2 1 0 0 0 0 0 0 0 0 0 0 0 0 0 0 0 0 0 0 0 0 0 0 0 0 0 0 0 0 0 0 0 0
1 1 2 2 2 1 0 0 0 0 0 0 0 0 0 0 0 0 0 0 0 0 0 0 0 0 0 0 0 0 0 0 0 0 0 0 0 0
1 1 1 1 1 1 0 0 0 0 0 0 0 0 0 0 0 0 0 0 0 0 0 0 0 0 0 0 0 0 0 0 0 0 0 0 0 0
0 0 1 0 0 0 0 0 0 0 0 0 0 0 0 0 0 0 0 0 0 0 0 0 0 0 0 0 0 0 0 0 0 0 0 0 0 0
0 0 0 0 0 0 0 0 0 0 0 0 0 0 0 0 0 0 0 0 0 0 0 0 0 0 0 0 0 0 0 0 0 0 0 0 0 0
0 0 0 0 0 0 0 0 0 0 0 0 0 0 0 0 0 0 0 0 0 0 0 0 0 0 0 0 0 0 0 0 0 0 0 0 0 0
0 0 0 0 0 0 0 0 0 0 0 0 0 0 0 0 0 0 0 0 0 0 0 0 0 0 0 0 0 0 0 0 0 0 0 0 0 0
0 0 0 0 0 0 0 0 0 0 0 0 0 0 0 0 0 0 0 0 0 0 0 0 0 0 0 0 0 0 0 0 0 0 0 0 0 -0
0 0 0 0 0 0 0 0 0 0 0 0 0 0 0 0 0 0 0 0 0 0 0 0 0 0 0 0 0 0 0 0 0 0 0 0 0 -0
0 0 0 0 0 0 0 0 0 0 0 0 0 0 0 0 0 0 0 0 0 0 0 0 0 0 0 0 0 0 0 0 0 0 0 0 0 -0
0 0 0 0 0 0 0 0 0 0 0 0 0 0 0 0 0 0 0 0 0 0 0 0 0 0 0 0 0 0 0 0 0 0 0 0 0 0
0 0 0 0 0 0 0 0 0 0 0 0 0 0 0 0 0 0 0 0 0 0 0 0 0 0 0 0 0 0 0 0 0 0 0 0 0 0
0 0 0 0 0 0 0 0 0 0 0 0 0 0 0 0 0 0 0 0 0 0 0 0 0 0 0 0 0 0 0 0 0 0 0 0 0 0
0 0 0 0 0 0 0 0 0 0 0 0 0 0 0 0 0 0 0 0 0 0 0 0 0 0 0 0 0 0 0 0 0 0 0 0 0 0
0 0 0 0 0 0 0 0 0 0 0 0 0 0 0 0 0 0 0 0 0 0 0 0 0 0 0 0 0 0 0 0 0 0 0 0 0 0
0 0 0 0 0 0 0 0 0 0 0 0 0 0 0 0 0 0 0 0 0 0 0 0 0 0 0 0 0 0 0 0 0 0 0 0 0 0
0 0 0 0 0 0 0 0 0 0 0 0 0 0 0 0 0 0 0 0 0 0 0 0 0 0 0 0 0 0 0 0 0 0 0 0 0 0
0 0 0 0 0 0 0 0 0 0 0 0 0 0 0 0 0 0 0 0 0 0 0 0 0 0 0 0 0 0 0 0 0 0 0 0 0 0
0 0 0 0 0 0 0 0 0 0 0 0 0 0 0 0 0 0 0 0 0 0 0 0 0 0 0 0 0 0 0 0 0 0 0 0 0 0
0 0 0 0 0 0 0 0 0 0 0 0 0 0 0 0 0 0 0 0 0 0 0 0 0 0 0 0 0 0 0 0 0 0 0 0 0 0
0 0 0 0 0 0 0 0 0 0 0 0 0 0 0 0 0 0 0 0 0 0 0 0 0 0 0 0 0 0 0 0 0 0 0 0 0 0
0 0 0 0 0 0 0 0 0 0 0 0 0 0 0 0 0 0 0 0 0 0 0 0 0 0 0 0 0 0 0 0 0 0 0 0 0 0
0 0 0 0 0 0 0 0 0 0 0 0 0 0 0 0 0 0 0 0 0 0 0 0 0 0 0 0 0 0 0 0 0 0 0 0 0 0
Wind_Speed
4 4 4 4 5 5 6 7 7 7 5 5 5 5 4 4 4 3 5 7 6 5 5 4 4 4 3 4 4 4 4 4 4 5 5 6 6 7
5 6 6 5 5 6 6 4 4 6 6 6 5 6 5 6 4 3 4 9 7 5 4 4 4 3 3 3 2 2 1 2 2 3 4 5 5 6
7 8 8 7 6 6 6 6 5 6 9 8 7 7 6 5 5 3 4 5 6 7 5 4 4 4 3 3 2 1 1 0 1 2 4 5 5 6
9 9 9 8 8 7 6 7 6 7 10 11 8 7 6 5 4 3 3 2 4 8 6 5 4 4 4 4 3 3 2 2 2 3 4 5 6 6
10 10 10 10 9 8 8 8 8 8 9 9 8 6 6 5 5 4 3 1 2 7 8 8 6 5 5 5 4 4 4 4 4 4 5 6 6 7
11 11 10 10 10 10 9 9 9 9 8 8 8 6 5 5 3 3 3 3 1 2 2 4 7 9 8 7 6 5 5 5 5 5 6 6 7 7
13 13 13 14 13 9 8 9 8 7 7 7 7 6 5 4 3 2 2 2 3 0 2 2 4 5 7 9 8 6 5 5 6 6 6 7 7 8
12 12 13 13 15 16 16 14 9 6 6 5 6 6 5 4 3 1 1 0 2 2 3 1 1 1 2 2 6 5 5 6 6 7 7 7 8 8
11 10 10 10 10 12 12 12 13 13 8 5 7 6 5 4 2 2 2 2 3 2 3 1 0 1 1 3 8 5 6 6 7 7 7 7 8 8
11 11 10 10 9 7 10 10 10 9 6 6 6 5 5 3 2 1 0 2 4 2 2 3 2 2 2 1 9 8 7 7 7 8 8 8 8 9
10 10 10 10 8 6 8 9 9 7 7 7 6 5 4 3 4 3 1 2 1 2 0 3 3 3 2 1 6 11 10 9 9 9 8 8 9 10
9 10 12 9 8 7 6 7 7 6 6 6 5 4 4 3 3 4 5 4 3 1 2 3 3 4 3 1 2 3 6 10 12 11 10 9 8 8
7 8 8 7 7 7 5 6 5 2 3 3 4 3 3 2 2 0 3 4 5 4 3 4 4 4 4 4 2 2 2 2 4 6 10 11 9 7
7 7 8 5 5 5 5 5 2 4 1 2 2 2 2 2 2 2 2 3 4 5 5 5 5 5 6 5 4 3 3 3 3 3 3 6 10 10
7 8 5 3 4 5 4 0 3 1 2 2 3 3 3 3 2 1 1 3 5 5 3 4 5 5 5 6 5 5 4 4 3 3 4 4 3 3
6 6 4 2 2 5 4 2 1 4 3 3 2 2 2 1 2 3 3 4 3 2 2 4 5 6 6 6 6 6 4 4 4 4 5 5 4 3
1 3 4 4 3 3 3 3 2 2 1 2 2 2 2 3 2 2 3 4 4 4 3 2 4 6 7 7 6 5 4 4 4 4 5 6 5 3
4 3 3 3 2 2 2 2 2 2 2 2 2 3 3 3 3 3 3 4 4 4 4 4 5 5 5 3 3 5 5 5 5 5 6 6 5 4
1 3 3 3 2 2 2 2 3 3 2 2 2 3 3 3 4 4 4 4 5 5 5 4 4 5 7 5 1 4 5 6 6 6 5 5 5 4
2 3 2 2 2 2 2 2 2 1 1 2 2 3 3 4 4 4 4 5 5 6 5 4 4 5 7 7 7 3 6 5 6 7 7 6 5 3
2 2 2 2 2 2 2 2 2 2 3 3 2 3 4 4 4 5 4 3 5 5 5 5 3 2 6 6 6 4 2 5 4 5 7 8 7 6
2 2 2 2 2 2 1 1 1 1 1 2 2 3 3 4 4 5 5 5 5 5 6 5 5 4 5 5 6 6 5 4 6 11 10 7 6 7
2 2 1 0 1 1 2 2 2 2 2 3 3 3 4 4 5 5 5 5 6 6 7 6 6 5 6 6 6 6 7 7 6 5 5 11 15 15
Wind_Direction
115 125 123 126 131 132 137 146 143 146 145 159 162 154 146 121 136 153 132 132 134 129 130 130 127 121 114 105 92 77 63 52 39 27 16 12 10 7
91 98 101 105 111 120 130 135 136 142 139 149 142 142 144 143 158 157 135 147 152 151 153 158 158 155 150 139 125 105 80 55 29 13 4 2 0 357
93 97 100 107 116 123 128 129 131 133 126 128 128 130 145 150 148 173 166 181 152 158 164 176 180 180 177 176 177 185 195 313 333 335 336 339 340 340
94 99 103 109 111 118 124 122 116 120 130 130 133 140 146 152 158 188 164 171 141 144 168 180 189 195 195 195 199 205 221 252 280 295 308 316 319 321
89 94 100 105 106 108 112 112 115 117 121 130 133 135 146 149 167 169 143 166 177 153 174 182 188 198 201 203 208 216 230 246 261 277 289 296 300 304
84 85 89 95 101 106 105 108 111 117 124 129 131 138 139 148 172 159 155 167 179 158 171 186 184 196 200 203 209 219 232 245 257 268 277 283 288 290
81 79 76 75 67 73 94 107 118 126 131 131 133 136 131 148 141 135 132 171 152 170 253 194 186 199 186 197 203 210 230 245 256 265 273 278 282 282
87 89 91 85 78 69 65 63 66 96 109 120 122 115 115 108 89 87 94 196 142 104 296 256 246 255 220 183 144 179 227 246 256 264 272 277 278 277
83 85 88 92 98 98 93 87 68 54 48 58 91 95 106 92 78 102 60 6 18 33 308 297 283 296 264 123 152 198 230 247 257 263 269 273 274 273
79 81 85 82 71 86 98 93 90 74 56 67 78 76 80 80 57 35 57 230 212 183 293 303 338 324 320 147 168 201 224 242 254 261 265 267 270 269
77 72 80 83 45 39 98 101 98 101 91 70 57 62 55 21 334 294 294 303 10 105 33 318 331 323 304 241 173 195 214 227 239 248 254 261 269 270
93 86 67 63 41 18 92 103 102 97 103 120 126 154 160 157 226 296 330 336 340 7 57 320 327 324 314 315 323 196 214 217 223 230 233 242 260 279
97 95 82 60 49 27 34 74 71 54 119 130 131 131 138 142 171 165 349 328 336 346 1 325 322 322 315 316 308 302 299 280 233 229 218 222 231 260
80 85 90 78 65 42 57 66 341 285 135 97 87 80 65 52 41 14 1 326 309 306 316 317 311 321 320 322 324 326 318 302 300 307 303 200 218 227
71 68 80 126 153 117 100 354 269 271 62 67 67 56 44 36 346 309 275 264 262 259 265 274 288 302 303 306 312 320 319 313 305 307 306 302 294 262
114 125 148 124 115 102 154 183 56 39 15 38 40 37 16 359 334 347 337 327 316 305 225 241 262 285 290 304 303 306 309 309 310 318 320 303 284 274
46 145 144 141 134 115 99 77 80 117 80 42 19 359 355 350 343 338 329 320 322 325 322 289 246 246 259 272 296 310 317 313 313 331 301 298 305 297
297 103 92 82 79 77 73 86 78 52 24 12 2 353 349 339 335 330 324 322 321 323 325 325 317 306 288 236 255 303 321 328 325 310 292 302 314 325
244 88 77 64 52 52 43 37 46 49 3 342 354 347 341 332 331 331 334 333 330 327 320 318 319 321 323 332 218 243 313 325 317 313 312 311 309 319
84 78 76 67 47 29 27 28 26 21 356 351 354 343 337 330 330 329 333 342 330 322 319 326 342 342 332 328 322 292 217 290 320 321 322 316 305 277
72 68 55 44 38 35 23 17 353 349 358 333 335 334 328 322 327 328 328 335 300 309 326 335 356 258 279 283 292 308 296 203 247 288 310 313 319 314
49 52 53 34 15 1 356 335 314 318 306 295 325 325 320 316 317 316 322 321 315 320 323 320 315 291 289 298 307 312 314 300 232 226 247 267 306 320
42 19 26 32 2 316 346 353 328 325 324 321 321 319 316 314 311 309 311 311 314 320 320 321 322 314 312 311 310 314 315 312 307 285 248 215 226 241